Year,Month,Day,Hour,Minute,Value (Times are PST for temperature in C)
2006,07,25,00,00,16.70
2006,07,25,00,01,16.70
2006,07,25,00,02,16.70
2006,07,25,00,03,16.60
2006,07,25,00,04,16.50
2006,07,25,00,05,16.40
2006,07,25,00,06,16.40
2006,07,25,00,07,16.40
2006,07,25,00,08,16.30
2006,07,25,00,09,16.30
2006,07,25,00,10,16.20
2006,07,25,00,11,16.20
2006,07,25,00,12,16.20
2006,07,25,01,02,15.50
2006,07,25,01,03,15.50
2006,07,25,01,04,15.40
2006,07,25,01,05,15.40
2006,07,25,01,06,15.40
2006,07,25,01,07,15.30
2006,07,25,01,08,15.30
2006,07,25,01,09,15.30
2006,07,25,01,10,15.30
2006,07,25,01,11,15.30
2006,07,25,01,12,15.30
2006,07,25,01,13,15.30
2006,07,25,01,14,15.30
2006,07,25,01,15,15.30
2006,07,25,01,16,15.30
2006,07,25,01,17,15.30
2006,07,25,01,18,15.30
2006,07,25,01,19,15.30
2006,07,25,01,20,15.30
2006,07,25,01,21,15.30
2006,07,25,01,22,15.30
2006,07,25,01,23,15.30
2006,07,25,01,24,15.30
2006,07,25,01,25,15.30
2006,07,25,01,26,15.30
2006,07,25,01,27,15.30
2006,07,25,01,28,15.30
2006,07,25,01,29,15.30
2006,07,25,01,30,15.30
2006,07,25,01,31,15.30
2006,07,25,01,32,15.40
2006,07,25,01,33,15.40
2006,07,25,01,34,15.40
2006,07,25,01,35,15.40
2006,07,25,01,36,15.50
2006,07,25,01,37,15.50
2006,07,25,01,38,15.50
2006,07,25,01,39,15.50
2006,07,25,01,40,15.50
2006,07,25,01,41,15.50
2006,07,25,01,42,15.50
2006,07,25,01,43,15.60
2006,07,25,01,44,15.60
2006,07,25,01,45,15.60
2006,07,25,01,46,15.60
2006,07,25,01,47,15.60
2006,07,25,01,48,15.60
2006,07,25,01,49,15.60
2006,07,25,01,50,15.60
2006,07,25,01,51,15.60
2006,07,25,01,52,15.60
2006,07,25,01,53,15.60
2006,07,25,01,54,15.60
2006,07,25,01,55,15.60
2006,07,25,01,56,15.60
2006,07,25,01,57,15.60
2006,07,25,01,58,15.60
2006,07,25,01,59,15.60
2006,07,25,02,00,15.50
2006,07,25,02,01,15.50
2006,07,25,02,02,15.50
2006,07,25,02,03,15.50
2006,07,25,02,04,15.50
2006,07,25,02,05,15.50
2006,07,25,02,06,15.50
2006,07,25,02,07,15.50
2006,07,25,02,08,15.50
2006,07,25,02,09,15.50
2006,07,25,02,10,15.40
2006,07,25,02,11,15.40
2006,07,25,02,12,15.40
2006,07,25,02,13,15.40
2006,07,25,02,14,15.40
2006,07,25,02,15,15.40
2006,07,25,02,16,15.50
2006,07,25,02,17,15.50
2006,07,25,02,18,15.50
2006,07,25,02,19,15.50
2006,07,25,02,20,15.50
2006,07,25,02,21,15.50
2006,07,25,02,22,15.50
2006,07,25,02,23,15.50
2006,07,25,02,24,15.50
2006,07,25,02,25,15.50
2006,07,25,02,26,15.50
2006,07,25,02,27,15.50
2006,07,25,02,28,15.50
2006,07,25,02,29,15.50
2006,07,25,02,30,15.50
2006,07,25,02,31,15.50
2006,07,25,02,32,15.50
2006,07,25,02,33,15.50
2006,07,25,02,34,15.50
2006,07,25,02,35,15.50
2006,07,25,02,36,15.50
2006,07,25,02,37,15.50
2006,07,25,02,38,15.50
2006,07,25,02,39,15.50
2006,07,25,02,40,15.50
2006,07,25,02,41,15.50
2006,07,25,02,42,15.50
2006,07,25,02,43,15.50
2006,07,25,02,44,15.50
2006,07,25,02,45,15.50
2006,07,25,02,46,15.50
2006,07,25,02,47,15.50
2006,07,25,02,48,15.50
2006,07,25,02,49,15.50
2006,07,25,02,50,15.50
2006,07,25,02,51,15.50
2006,07,25,02,52,15.50
2006,07,25,02,53,15.50
2006,07,25,02,54,15.50
2006,07,25,02,55,15.50
2006,07,25,02,56,15.50
2006,07,25,02,57,15.50
2006,07,25,02,58,15.50
2006,07,25,02,59,15.50
2006,07,25,03,00,15.50
2006,07,25,03,01,15.50
2006,07,25,03,02,15.50
2006,07,25,03,03,15.50
2006,07,25,03,04,15.40
2006,07,25,03,05,15.40
2006,07,25,03,06,15.40
2006,07,25,03,07,15.40
2006,07,25,03,08,15.30
2006,07,25,03,09,15.30
2006,07,25,03,10,15.30
2006,07,25,03,11,15.30
2006,07,25,03,12,15.30
2006,07,25,03,13,15.30
2006,07,25,03,14,15.30
2006,07,25,03,15,15.30
2006,07,25,03,16,15.30
2006,07,25,03,17,15.30
2006,07,25,03,18,15.30
2006,07,25,03,19,15.30
2006,07,25,03,20,15.30
2006,07,25,03,21,15.30
2006,07,25,03,22,15.30
2006,07,25,03,23,15.30
2006,07,25,03,24,15.30
2006,07,25,03,25,15.30
2006,07,25,03,26,15.30
2006,07,25,03,27,15.30
2006,07,25,03,28,15.30
2006,07,25,03,29,15.30
2006,07,25,03,30,15.20
2006,07,25,03,31,15.20
2006,07,25,03,32,15.20
2006,07,25,03,33,15.20
2006,07,25,03,34,15.20
2006,07,25,03,35,15.20
2006,07,25,03,36,15.20
2006,07,25,03,37,15.10
2006,07,25,03,38,15.10
2006,07,25,03,39,15.10
2006,07,25,03,40,15.10
2006,07,25,03,41,15.10
2006,07,25,03,42,15.10
2006,07,25,03,43,15.00
2006,07,25,03,44,15.00
2006,07,25,03,45,15.00
2006,07,25,03,46,15.00
2006,07,25,03,47,15.00
2006,07,25,03,48,15.00
2006,07,25,03,49,15.00
2006,07,25,03,50,15.00
2006,07,25,03,51,15.00
2006,07,25,03,52,15.00
2006,07,25,03,53,15.00
2006,07,25,03,54,15.00
2006,07,25,03,55,15.00
2006,07,25,03,56,15.00
2006,07,25,03,57,15.00
2006,07,25,03,58,15.00
2006,07,25,03,59,15.00
2006,07,25,04,00,15.00
2006,07,25,04,01,15.00
2006,07,25,04,02,15.00
2006,07,25,04,03,15.00
2006,07,25,04,04,15.00
2006,07,25,04,05,14.90
2006,07,25,04,06,14.90
2006,07,25,04,07,14.90
2006,07,25,04,08,14.90
2006,07,25,04,09,14.90
2006,07,25,04,10,14.90
2006,07,25,04,11,14.90
2006,07,25,04,12,14.90
2006,07,25,04,13,14.90
2006,07,25,04,14,14.80
2006,07,25,04,15,14.80
2006,07,25,04,16,14.80
2006,07,25,04,17,14.80
2006,07,25,04,18,14.80
2006,07,25,04,19,14.80
2006,07,25,04,20,14.80
2006,07,25,04,21,14.80
2006,07,25,04,22,14.80
2006,07,25,04,23,14.80
2006,07,25,04,24,14.80
2006,07,25,04,25,14.80
2006,07,25,04,26,14.70
2006,07,25,04,27,14.70
2006,07,25,04,28,14.70
2006,07,25,04,29,14.70
2006,07,25,04,30,14.70
2006,07,25,04,31,14.70
2006,07,25,04,32,14.70
2006,07,25,04,33,14.70
2006,07,25,04,34,14.70
2006,07,25,04,35,14.70
2006,07,25,04,36,14.70
2006,07,25,04,37,14.70
2006,07,25,04,38,14.70
2006,07,25,04,39,14.70
2006,07,25,04,40,14.70
2006,07,25,04,41,14.70
2006,07,25,04,42,14.70
2006,07,25,04,43,14.70
2006,07,25,04,44,14.60
2006,07,25,04,45,14.60
2006,07,25,04,46,14.60
2006,07,25,04,47,14.60
2006,07,25,04,48,14.50
2006,07,25,04,49,14.50
2006,07,25,04,50,14.50
2006,07,25,04,51,14.40
2006,07,25,04,52,14.40
2006,07,25,04,53,14.30
2006,07,25,04,54,14.30
2006,07,25,04,55,14.30
2006,07,25,04,56,14.20
2006,07,25,04,57,14.20
2006,07,25,04,58,14.20
2006,07,25,04,59,14.20
2006,07,25,05,00,14.20
2006,07,25,05,01,14.20
2006,07,25,05,02,14.20
2006,07,25,05,03,14.20
2006,07,25,05,04,14.20
2006,07,25,05,05,14.20
2006,07,25,05,06,14.20
2006,07,25,05,07,14.20
2006,07,25,05,08,14.20
2006,07,25,05,09,14.20
2006,07,25,05,10,14.20
2006,07,25,05,11,14.20
2006,07,25,05,12,14.20
2006,07,25,05,13,14.20
2006,07,25,05,14,14.20
2006,07,25,05,15,14.20
2006,07,25,05,16,14.20
2006,07,25,05,17,14.20
2006,07,25,05,18,14.20
2006,07,25,05,19,14.20
2006,07,25,05,20,14.20
2006,07,25,05,21,14.20
2006,07,25,05,22,14.20
2006,07,25,05,23,14.30
2006,07,25,05,24,14.30
2006,07,25,05,25,14.30
2006,07,25,05,26,14.30
2006,07,25,05,27,14.40
2006,07,25,05,28,14.40
2006,07,25,05,29,14.40
2006,07,25,05,30,14.40
2006,07,25,05,31,14.40
2006,07,25,05,32,14.40
2006,07,25,05,33,14.40
2006,07,25,05,34,14.40
2006,07,25,05,35,14.30
2006,07,25,05,36,14.30
2006,07,25,05,37,14.30
2006,07,25,05,38,14.30
2006,07,25,05,39,14.30
2006,07,25,05,40,14.30
2006,07,25,05,41,14.30
2006,07,25,05,42,14.30
2006,07,25,05,43,14.30
2006,07,25,05,44,14.30
2006,07,25,05,45,14.30
2006,07,25,05,46,14.30
2006,07,25,05,47,14.30
2006,07,25,05,48,14.30
2006,07,25,05,49,14.30
2006,07,25,05,50,14.30
2006,07,25,05,51,14.30
2006,07,25,05,52,14.30
2006,07,25,05,53,14.30
2006,07,25,05,54,14.30
2006,07,25,05,55,14.20
2006,07,25,05,56,14.20
2006,07,25,05,57,14.20
2006,07,25,05,58,14.20
2006,07,25,05,59,14.20
2006,07,25,06,00,14.20
2006,07,25,06,01,14.20
2006,07,25,06,02,14.30
2006,07,25,06,03,14.20
2006,07,25,06,04,14.20
2006,07,25,06,05,14.20
2006,07,25,06,06,14.20
2006,07,25,06,07,14.20
2006,07,25,06,08,14.20
2006,07,25,06,09,14.20
2006,07,25,06,10,14.20
2006,07,25,06,11,14.20
2006,07,25,06,12,14.20
2006,07,25,06,13,14.20
2006,07,25,06,14,14.20
2006,07,25,06,15,14.20
2006,07,25,06,16,14.20
2006,07,25,06,17,14.20
2006,07,25,06,18,14.20
2006,07,25,06,19,14.20
2006,07,25,06,20,14.20
2006,07,25,06,21,14.20
2006,07,25,06,22,14.20
2006,07,25,06,23,14.20
2006,07,25,06,24,14.30
2006,07,25,06,25,14.30
2006,07,25,06,26,14.30
2006,07,25,06,27,14.30
2006,07,25,06,28,14.30
2006,07,25,06,29,14.40
2006,07,25,06,30,14.40
2006,07,25,06,31,14.40
2006,07,25,06,32,14.50
2006,07,25,06,33,14.50
2006,07,25,06,34,14.50
2006,07,25,06,35,14.50
2006,07,25,06,36,14.60
2006,07,25,06,37,14.60
2006,07,25,06,38,14.60
2006,07,25,06,39,14.60
2006,07,25,06,40,14.60
2006,07,25,06,41,14.60
2006,07,25,06,42,14.60
2006,07,25,06,43,14.70
2006,07,25,06,44,14.70
2006,07,25,06,45,14.70
2006,07,25,06,46,14.70
2006,07,25,06,47,14.80
2006,07,25,06,48,14.80
2006,07,25,06,49,14.80
2006,07,25,06,50,14.80
2006,07,25,06,51,14.80
2006,07,25,06,52,14.80
2006,07,25,06,53,14.80
2006,07,25,06,54,14.80
2006,07,25,06,55,14.80
2006,07,25,06,56,14.90
2006,07,25,06,57,14.90
2006,07,25,06,58,14.90
2006,07,25,06,59,15.00
2006,07,25,07,00,15.00
2006,07,25,07,01,15.10
2006,07,25,07,02,15.10
2006,07,25,07,03,15.20
2006,07,25,07,04,15.20
2006,07,25,07,05,15.30
2006,07,25,07,06,15.30
2006,07,25,07,07,15.30
2006,07,25,07,08,15.40
2006,07,25,07,09,15.40
2006,07,25,07,10,15.50
2006,07,25,07,11,15.50
2006,07,25,07,12,15.60
2006,07,25,07,13,15.60
2006,07,25,07,14,15.60
2006,07,25,07,15,15.70
2006,07,25,07,16,15.70
2006,07,25,07,17,15.80
2006,07,25,07,18,15.80
2006,07,25,07,19,15.80
2006,07,25,07,20,15.80
2006,07,25,07,21,15.90
2006,07,25,07,22,15.90
2006,07,25,07,23,15.90
2006,07,25,07,24,15.90
2006,07,25,07,25,16.00
2006,07,25,07,26,16.10
2006,07,25,07,27,16.10
2006,07,25,07,28,16.10
2006,07,25,07,29,16.10
2006,07,25,07,30,16.10
2006,07,25,07,31,16.10
2006,07,25,07,32,16.10
2006,07,25,07,33,16.10
2006,07,25,07,34,16.20
2006,07,25,07,35,16.20
2006,07,25,07,36,16.20
2006,07,25,07,37,16.30
2006,07,25,07,38,16.30
2006,07,25,07,39,16.30
2006,07,25,07,40,16.30
2006,07,25,07,41,16.30
2006,07,25,07,42,16.30
2006,07,25,07,43,16.30
2006,07,25,07,44,16.30
2006,07,25,07,45,16.30
2006,07,25,07,46,16.30
2006,07,25,07,47,16.30
2006,07,25,07,48,16.30
2006,07,25,07,49,16.30
2006,07,25,07,50,16.30
2006,07,25,07,51,16.30
2006,07,25,07,52,16.30
2006,07,25,07,53,16.40
2006,07,25,07,54,16.30
2006,07,25,07,55,16.30
2006,07,25,07,56,16.40
2006,07,25,07,57,16.40
2006,07,25,07,58,16.40
2006,07,25,07,59,16.40
2006,07,25,08,00,16.50
2006,07,25,08,01,16.60
2006,07,25,08,02,16.60
2006,07,25,08,03,16.60
2006,07,25,08,04,16.70
2006,07,25,08,05,16.70
2006,07,25,08,06,16.70
2006,07,25,08,07,16.70
2006,07,25,08,08,16.70
2006,07,25,08,09,16.80
2006,07,25,08,10,16.80
2006,07,25,08,11,16.90
2006,07,25,08,12,16.90
2006,07,25,08,13,16.90
2006,07,25,08,14,16.90
2006,07,25,08,15,16.90
2006,07,25,08,16,16.90
2006,07,25,08,17,16.90
2006,07,25,08,18,17.00
2006,07,25,08,19,17.00
2006,07,25,08,20,17.10
2006,07,25,08,21,17.20
2006,07,25,08,22,17.20
2006,07,25,08,23,17.30
2006,07,25,08,24,17.30
2006,07,25,08,25,17.40
2006,07,25,08,26,17.50
2006,07,25,08,27,17.50
2006,07,25,08,28,17.60
2006,07,25,08,29,17.60
2006,07,25,08,30,17.60
2006,07,25,08,31,17.70
2006,07,25,08,32,17.70
2006,07,25,08,33,17.70
2006,07,25,08,34,17.70
2006,07,25,08,35,17.80
2006,07,25,08,36,17.70
2006,07,25,08,37,17.70
2006,07,25,08,38,17.80
2006,07,25,08,39,17.70
2006,07,25,08,40,17.70
2006,07,25,08,41,17.70
2006,07,25,08,42,17.70
2006,07,25,08,43,17.70
2006,07,25,08,44,17.60
2006,07,25,08,45,17.70
2006,07,25,08,46,17.70
2006,07,25,08,47,17.70
2006,07,25,08,48,17.80
2006,07,25,08,49,17.90
2006,07,25,08,50,17.90
2006,07,25,08,51,18.00
2006,07,25,08,52,18.10
2006,07,25,08,53,18.20
2006,07,25,08,54,18.20
2006,07,25,08,55,18.20
2006,07,25,08,56,18.30
2006,07,25,08,57,18.40
2006,07,25,08,58,18.50
2006,07,25,08,59,18.60
2006,07,25,09,00,18.60
2006,07,25,09,01,18.70
2006,07,25,09,02,18.80
2006,07,25,09,03,18.90
2006,07,25,09,04,18.90
2006,07,25,09,05,19.00
2006,07,25,09,06,19.10
2006,07,25,09,07,19.10
2006,07,25,09,08,19.10
2006,07,25,09,09,19.10
2006,07,25,09,10,19.10
2006,07,25,09,11,19.00
2006,07,25,09,12,18.90
2006,07,25,09,13,18.80
2006,07,25,09,14,18.70
2006,07,25,09,15,18.70
2006,07,25,09,16,18.60
2006,07,25,09,17,18.50
2006,07,25,09,18,18.50
2006,07,25,09,19,18.50
2006,07,25,09,20,18.50
2006,07,25,09,21,18.40
2006,07,25,09,22,18.30
2006,07,25,09,23,18.30
2006,07,25,09,24,18.30
2006,07,25,09,25,18.20
2006,07,25,09,26,18.20
2006,07,25,09,27,18.20
2006,07,25,09,28,18.20
2006,07,25,09,29,18.20
2006,07,25,09,30,18.30
2006,07,25,09,31,18.30
2006,07,25,09,32,18.30
2006,07,25,09,33,18.30
2006,07,25,09,34,18.40
2006,07,25,09,35,18.40
2006,07,25,09,36,18.50
2006,07,25,09,37,18.50
2006,07,25,09,38,18.60
2006,07,25,09,39,18.60
2006,07,25,09,40,18.70
2006,07,25,09,41,18.80
2006,07,25,09,42,18.90
2006,07,25,09,43,19.10
2006,07,25,09,44,19.10
2006,07,25,09,45,19.30
2006,07,25,09,46,19.30
2006,07,25,09,47,19.40
2006,07,25,09,48,19.40
2006,07,25,09,49,19.40
2006,07,25,09,50,19.50
2006,07,25,09,51,19.60
2006,07,25,09,52,19.60
2006,07,25,09,53,19.70
2006,07,25,09,54,19.80
2006,07,25,09,55,19.90
2006,07,25,09,56,20.00
2006,07,25,09,57,20.10
2006,07,25,09,58,20.20
2006,07,25,09,59,20.20
2006,07,25,10,00,20.40
2006,07,25,10,01,20.50
2006,07,25,10,02,20.60
2006,07,25,10,03,20.60
2006,07,25,10,04,20.70
2006,07,25,10,05,20.80
2006,07,25,10,06,20.80
2006,07,25,10,07,20.90
2006,07,25,10,08,20.90
2006,07,25,10,09,20.90
2006,07,25,10,10,20.90
2006,07,25,10,11,20.90
2006,07,25,10,12,20.90
2006,07,25,10,13,20.90
2006,07,25,10,14,20.90
2006,07,25,10,15,20.80
2006,07,25,10,16,20.80
2006,07,25,10,17,20.90
2006,07,25,10,18,20.90
2006,07,25,10,19,20.80
2006,07,25,10,20,20.70
2006,07,25,10,21,20.70
2006,07,25,10,22,20.70
2006,07,25,10,23,20.60
2006,07,25,10,24,20.50
2006,07,25,10,25,20.50
2006,07,25,10,26,20.50
2006,07,25,10,27,20.50
2006,07,25,10,28,20.50
2006,07,25,10,29,20.50
2006,07,25,10,30,20.50
2006,07,25,10,31,20.50
2006,07,25,10,32,20.60
2006,07,25,10,33,20.70
2006,07,25,10,34,20.70
2006,07,25,10,35,20.80
2006,07,25,10,36,20.80
2006,07,25,10,37,20.80
2006,07,25,10,38,20.80
2006,07,25,10,39,20.90
2006,07,25,10,40,20.90
2006,07,25,10,41,20.90
2006,07,25,10,42,20.90
2006,07,25,10,43,20.90
2006,07,25,10,44,20.90
2006,07,25,10,45,20.90
2006,07,25,10,46,21.00
2006,07,25,10,47,21.00
2006,07,25,10,48,21.00
2006,07,25,10,49,21.10
2006,07,25,10,50,21.20
2006,07,25,10,51,21.30
2006,07,25,10,52,21.30
2006,07,25,10,53,21.30
2006,07,25,10,54,21.30
2006,07,25,10,55,21.30
2006,07,25,10,56,21.30
2006,07,25,10,57,21.30
2006,07,25,10,58,21.30
2006,07,25,10,59,21.30
2006,07,25,11,00,21.30
2006,07,25,11,01,21.30
2006,07,25,11,02,21.30
2006,07,25,11,03,21.30
2006,07,25,11,04,21.30
2006,07,25,11,05,21.30
2006,07,25,11,06,21.20
2006,07,25,11,07,21.20
2006,07,25,11,08,21.20
2006,07,25,11,09,21.30
2006,07,25,11,10,21.30
2006,07,25,11,11,21.40
2006,07,25,11,12,21.50
2006,07,25,11,13,21.60
2006,07,25,11,14,21.60
2006,07,25,11,15,21.70
2006,07,25,11,16,21.80
2006,07,25,11,17,21.80
2006,07,25,11,18,21.80
2006,07,25,11,19,21.70
2006,07,25,11,20,21.80
2006,07,25,11,21,21.80
2006,07,25,11,22,21.90
2006,07,25,11,23,21.90
2006,07,25,11,24,21.90
2006,07,25,11,25,21.90
2006,07,25,11,26,21.90
2006,07,25,11,27,21.90
2006,07,25,11,28,21.90
2006,07,25,11,29,22.00
2006,07,25,11,30,22.00
2006,07,25,11,31,22.00
2006,07,25,11,32,22.10
2006,07,25,11,33,22.20
2006,07,25,11,34,22.20
2006,07,25,11,35,22.20
2006,07,25,11,36,22.30
2006,07,25,11,37,22.30
2006,07,25,11,38,22.30
2006,07,25,11,39,22.30
2006,07,25,11,40,22.30
2006,07,25,11,41,22.20
2006,07,25,11,42,22.10
2006,07,25,11,43,22.20
2006,07,25,11,44,22.20
2006,07,25,11,45,22.30
2006,07,25,11,46,22.30
2006,07,25,11,47,22.50
2006,07,25,11,48,22.50
2006,07,25,11,49,22.60
2006,07,25,11,50,22.60
2006,07,25,11,51,22.60
2006,07,25,11,52,22.70
2006,07,25,11,53,22.70
2006,07,25,11,54,22.70
2006,07,25,11,55,22.70
2006,07,25,11,56,22.80
2006,07,25,11,57,22.80
2006,07,25,11,58,22.90
2006,07,25,11,59,22.90
2006,07,25,12,00,23.10
2006,07,25,12,01,23.30
2006,07,25,12,02,23.40
2006,07,25,12,03,23.60
2006,07,25,12,04,23.70
2006,07,25,12,05,23.70
2006,07,25,12,06,23.70
2006,07,25,12,07,23.70
2006,07,25,12,08,23.60
2006,07,25,12,09,23.60
2006,07,25,12,10,23.60
2006,07,25,12,11,23.60
2006,07,25,12,12,23.60
2006,07,25,12,13,23.60
2006,07,25,12,14,23.60
2006,07,25,12,15,23.70
2006,07,25,12,16,23.70
2006,07,25,12,17,23.70
2006,07,25,12,18,23.70
2006,07,25,12,19,23.70
2006,07,25,12,20,23.70
2006,07,25,12,21,23.70
2006,07,25,12,22,23.70
2006,07,25,12,23,23.70
2006,07,25,12,24,23.70
2006,07,25,12,25,23.70
2006,07,25,12,26,23.70
2006,07,25,12,27,23.70
2006,07,25,12,28,23.60
2006,07,25,12,29,23.60
2006,07,25,12,30,23.60
2006,07,25,12,31,23.50
2006,07,25,12,32,23.40
2006,07,25,12,33,23.50
2006,07,25,12,34,23.50
2006,07,25,12,35,23.50
2006,07,25,12,36,23.40
2006,07,25,12,37,23.50
2006,07,25,12,38,23.50
2006,07,25,12,39,23.60
2006,07,25,12,40,23.50
2006,07,25,12,41,23.40
2006,07,25,12,42,23.50
2006,07,25,12,43,23.60
2006,07,25,12,44,23.70
2006,07,25,12,45,23.70
2006,07,25,12,46,23.80
2006,07,25,12,47,23.90
2006,07,25,12,48,24.00
2006,07,25,12,49,24.10
2006,07,25,12,50,24.10
2006,07,25,12,51,24.20
2006,07,25,12,52,24.20
2006,07,25,12,53,24.20
2006,07,25,12,54,24.10
2006,07,25,12,55,24.10
2006,07,25,12,56,24.00
2006,07,25,12,57,23.90
2006,07,25,12,58,23.80
2006,07,25,12,59,23.80
2006,07,25,13,00,23.80
2006,07,25,13,01,23.90
2006,07,25,13,02,23.90
2006,07,25,13,03,23.90
2006,07,25,13,04,23.90
2006,07,25,13,05,23.90
2006,07,25,13,06,23.90
2006,07,25,13,07,23.90
2006,07,25,13,08,24.00
2006,07,25,13,09,24.10
2006,07,25,13,10,24.10
2006,07,25,13,11,24.20
2006,07,25,13,12,24.20
2006,07,25,13,13,24.30
2006,07,25,13,14,24.30
2006,07,25,13,15,24.40
2006,07,25,13,16,24.50
2006,07,25,13,17,24.50
2006,07,25,13,18,24.60
2006,07,25,13,19,24.60
2006,07,25,13,20,24.70
2006,07,25,13,21,24.60
2006,07,25,13,22,24.60
2006,07,25,13,23,24.50
2006,07,25,13,24,24.50
2006,07,25,13,25,24.40
2006,07,25,13,26,24.50
2006,07,25,13,27,24.50
2006,07,25,13,28,24.50
2006,07,25,13,29,24.50
2006,07,25,13,30,24.50
2006,07,25,13,31,24.60
2006,07,25,13,32,24.60
2006,07,25,13,33,24.60
2006,07,25,13,34,24.60
2006,07,25,13,35,24.70
2006,07,25,13,36,24.80
2006,07,25,13,37,24.90
2006,07,25,13,38,25.10
2006,07,25,13,39,25.10
2006,07,25,13,40,25.10
2006,07,25,13,41,25.10
2006,07,25,13,42,25.10
2006,07,25,13,43,25.30
2006,07,25,13,44,25.30
2006,07,25,13,45,25.40
2006,07,25,13,46,25.40
2006,07,25,13,47,25.40
2006,07,25,13,48,25.40
2006,07,25,13,49,25.50
2006,07,25,13,50,25.50
2006,07,25,13,51,25.50
2006,07,25,13,52,25.40
2006,07,25,13,53,25.40
2006,07,25,13,54,25.40
2006,07,25,13,55,25.50
2006,07,25,13,56,25.60
2006,07,25,13,57,25.60
2006,07,25,13,58,25.60
2006,07,25,13,59,25.60
2006,07,25,14,00,25.60
2006,07,25,14,01,25.50
2006,07,25,14,02,25.40
2006,07,25,14,03,25.40
2006,07,25,14,04,25.30
2006,07,25,14,05,25.20
2006,07,25,14,06,25.10
2006,07,25,14,07,24.90
2006,07,25,14,08,24.80
2006,07,25,14,09,24.70
2006,07,25,14,10,24.60
2006,07,25,14,11,24.50
2006,07,25,14,12,24.40
2006,07,25,14,13,24.40
2006,07,25,14,14,24.30
2006,07,25,14,15,24.30
2006,07,25,14,16,24.30
2006,07,25,14,17,24.30
2006,07,25,14,18,24.30
2006,07,25,14,19,24.30
2006,07,25,14,20,24.30
2006,07,25,14,21,24.20
2006,07,25,14,22,24.20
2006,07,25,14,23,24.10
2006,07,25,14,24,24.10
2006,07,25,14,25,24.10
2006,07,25,14,26,24.10
2006,07,25,14,27,23.90
2006,07,25,14,28,23.80
2006,07,25,14,29,23.70
2006,07,25,14,30,23.70
2006,07,25,14,31,23.70
2006,07,25,14,32,23.70
2006,07,25,14,33,23.70
2006,07,25,14,34,23.70
2006,07,25,14,35,23.80
2006,07,25,14,36,23.90
2006,07,25,14,37,24.00
2006,07,25,14,38,24.20
2006,07,25,14,39,24.20
2006,07,25,14,40,24.30
2006,07,25,14,41,24.40
2006,07,25,14,42,24.60
2006,07,25,14,43,24.60
2006,07,25,14,44,24.70
2006,07,25,14,45,24.70
2006,07,25,14,46,24.80
2006,07,25,14,47,24.70
2006,07,25,14,48,24.80
2006,07,25,14,49,24.80
2006,07,25,14,50,24.80
2006,07,25,14,51,24.70
2006,07,25,14,52,24.70
2006,07,25,14,53,24.70
2006,07,25,14,54,24.80
2006,07,25,14,55,24.90
2006,07,25,14,56,25.00
2006,07,25,14,57,25.00
2006,07,25,14,58,25.00
2006,07,25,14,59,25.00
2006,07,25,15,00,25.10
2006,07,25,15,01,25.20
2006,07,25,15,02,25.10
2006,07,25,15,03,24.90
2006,07,25,15,04,24.80
2006,07,25,15,05,24.60
2006,07,25,15,06,24.50
2006,07,25,15,07,24.40
2006,07,25,15,08,24.20
2006,07,25,15,09,24.10
2006,07,25,15,10,23.90
2006,07,25,15,11,23.70
2006,07,25,15,12,23.80
2006,07,25,15,13,23.80
2006,07,25,15,14,23.80
2006,07,25,15,15,23.80
2006,07,25,15,16,23.90
2006,07,25,15,17,24.00
2006,07,25,15,18,24.10
2006,07,25,15,19,24.10
2006,07,25,15,20,24.10
2006,07,25,15,21,24.10
2006,07,25,15,22,24.10
2006,07,25,15,23,24.20
2006,07,25,15,24,24.20
2006,07,25,15,25,24.30
2006,07,25,15,26,24.30
2006,07,25,15,27,24.20
2006,07,25,15,28,24.20
2006,07,25,15,29,24.20
2006,07,25,15,30,24.20
2006,07,25,15,31,24.30
2006,07,25,15,32,24.30
2006,07,25,15,33,24.30
2006,07,25,15,34,24.20
2006,07,25,15,35,24.20
2006,07,25,15,36,24.10
2006,07,25,15,37,24.00
2006,07,25,15,38,23.90
2006,07,25,15,39,23.80
2006,07,25,15,40,23.70
2006,07,25,15,41,23.70
2006,07,25,15,42,23.60
2006,07,25,15,43,23.60
2006,07,25,15,44,23.60
2006,07,25,15,45,23.40
2006,07,25,15,46,23.30
2006,07,25,15,47,23.30
2006,07,25,15,48,23.30
2006,07,25,15,49,23.40
2006,07,25,15,50,23.40
2006,07,25,15,51,23.50
2006,07,25,15,52,23.40
2006,07,25,15,53,23.30
2006,07,25,15,54,23.30
2006,07,25,15,55,23.30
2006,07,25,15,56,23.30
2006,07,25,15,57,23.30
2006,07,25,15,58,23.30
2006,07,25,15,59,23.30
2006,07,25,16,00,23.30
2006,07,25,16,01,23.30
2006,07,25,16,02,23.40
2006,07,25,16,03,23.50
2006,07,25,16,04,23.60
2006,07,25,16,05,23.70
2006,07,25,16,06,23.70
2006,07,25,16,07,23.70
2006,07,25,16,08,23.70
2006,07,25,16,09,23.70
2006,07,25,16,10,23.70
2006,07,25,16,11,23.70
2006,07,25,16,12,23.80
2006,07,25,16,13,23.80
2006,07,25,16,14,23.80
2006,07,25,16,15,23.80
2006,07,25,16,16,23.80
2006,07,25,16,17,23.80
2006,07,25,16,18,23.90
2006,07,25,16,19,24.00
2006,07,25,16,20,24.10
2006,07,25,16,21,24.10
2006,07,25,16,22,24.00
2006,07,25,16,23,23.90
2006,07,25,16,24,23.80
2006,07,25,16,25,23.80
2006,07,25,16,26,23.80
2006,07,25,16,27,23.80
2006,07,25,16,28,23.80
2006,07,25,16,29,23.70
2006,07,25,16,30,23.70
2006,07,25,16,31,23.70
2006,07,25,16,32,23.80
2006,07,25,16,33,23.90
2006,07,25,16,34,23.90
2006,07,25,16,35,23.90
2006,07,25,16,36,23.80
2006,07,25,16,37,23.80
2006,07,25,16,38,23.80
2006,07,25,16,39,23.80
2006,07,25,16,40,23.90
2006,07,25,16,41,24.00
2006,07,25,16,42,24.10
2006,07,25,16,43,24.10
2006,07,25,16,44,24.10
2006,07,25,16,45,24.10
2006,07,25,16,46,24.10
2006,07,25,16,47,24.10
2006,07,25,16,48,24.10
2006,07,25,16,49,24.10
2006,07,25,16,50,24.00
2006,07,25,16,51,23.80
2006,07,25,16,52,23.70
2006,07,25,16,53,23.50
2006,07,25,16,54,23.40
2006,07,25,16,55,23.30
2006,07,25,16,56,23.30
2006,07,25,16,57,23.30
2006,07,25,16,58,23.30
2006,07,25,16,59,23.40
2006,07,25,17,00,23.40
2006,07,25,17,01,23.50
2006,07,25,17,02,23.60
2006,07,25,17,03,23.60
2006,07,25,17,04,23.70
2006,07,25,17,05,23.70
2006,07,25,17,06,23.70
2006,07,25,17,07,23.90
2006,07,25,17,08,23.90
2006,07,25,17,09,23.90
2006,07,25,17,10,23.90
2006,07,25,17,11,23.90
2006,07,25,17,12,23.90
2006,07,25,17,13,23.90
2006,07,25,17,14,23.90
2006,07,25,17,15,24.00
2006,07,25,17,16,24.10
2006,07,25,17,17,24.10
2006,07,25,17,18,24.10
2006,07,25,17,19,24.10
2006,07,25,17,20,24.10
2006,07,25,17,21,24.10
2006,07,25,17,22,24.10
2006,07,25,17,23,24.10
2006,07,25,17,24,24.10
2006,07,25,17,25,24.10
2006,07,25,17,26,24.10
2006,07,25,17,27,24.10
2006,07,25,17,28,24.10
2006,07,25,17,29,24.10
2006,07,25,17,30,24.10
2006,07,25,17,31,24.10
2006,07,25,17,32,24.10
2006,07,25,17,33,24.00
2006,07,25,17,34,24.00
2006,07,25,17,35,24.10
2006,07,25,17,36,24.00
2006,07,25,17,37,23.90
2006,07,25,17,38,23.90
2006,07,25,17,39,23.80
2006,07,25,17,40,23.70
2006,07,25,17,41,23.60
2006,07,25,17,42,23.50
2006,07,25,17,43,23.40
2006,07,25,17,44,23.30
2006,07,25,17,45,23.30
2006,07,25,17,46,23.10
2006,07,25,17,47,23.00
2006,07,25,17,48,22.90
2006,07,25,17,49,22.90
2006,07,25,17,50,22.90
2006,07,25,17,51,22.90
2006,07,25,17,52,22.90
2006,07,25,17,53,22.90
2006,07,25,17,54,23.00
2006,07,25,17,55,23.00
2006,07,25,17,56,22.90
2006,07,25,17,57,22.90
2006,07,25,17,58,22.90
2006,07,25,17,59,22.90
2006,07,25,18,00,22.90
2006,07,25,18,01,22.90
2006,07,25,18,02,22.90
2006,07,25,18,03,22.90
2006,07,25,18,04,22.90
2006,07,25,18,05,22.90
2006,07,25,18,06,22.80
2006,07,25,18,07,22.80
2006,07,25,18,08,22.80